This is the latest recevied weather packets stored in our database for station/object HK6LRQ-21. If no packets are shown the sender has not sent any weather packets the latest 10 day(s).
| Time | Temp. | Humidity | Pressure | Rain* | Wind** | Luminosity | Snow |
|---|---|---|---|---|---|---|---|
| 1778006286 | 18.89° C | 82% | 1013 hPa | 0 mm | - | - | - |
| 1778005085 | 20° C | 81% | 1013 hPa | 0 mm | - | - | - |
| 1778003884 | 18.33° C | 85% | 1014 hPa | 0 mm | - | - | - |
| 1778002683 | 19.44° C | 85% | 1014 hPa | 0 mm | - | - | - |
| 1778001483 | 18.33° C | 89% | 1015 hPa | 0 mm | - | - | - |
| 1778000282 | 20° C | 87% | 1015 hPa | 0 mm | - | - | - |
| 1777999081 | 16.67° C | 94% | 1015 hPa | 0 mm | - | - | - |
| 1777997880 | 17.22° C | 92% | 1016 hPa | 0 mm | - | - | - |
| 1777996679 | 18.33° C | 90% | 1016 hPa | 0 mm | - | - | - |
| 1777995478 | 19.44° C | 88% | 1016 hPa | 0 mm | - | - | - |
| 1777994277 | 15.56° C | 89% | 1016 hPa | 0 mm | - | - | - |
| 1777993076 | 16.11° C | 87% | 1016 hPa | 0 mm | - | - | - |
| 1777991875 | 15° C | 10% | - | 0 mm | - | - | - |
| 1777990674 | 16.67° C | 89% | 1016 hPa | 0 mm | - | - | - |
| 1777989473 | 14.44° C | 84% | 1016 hPa | 0 mm | - | - | - |
| 1777988272 | 13.33° C | 95% | 1016 hPa | 0 mm | - | - | - |
| 1777987071 | 13.33° C | 94% | 1016 hPa | 0 mm | - | - | - |
| 1777985870 | 13.33° C | 94% | 1016 hPa | 0 mm | - | - | - |
| 1777984669 | 11.67° C | 96% | 1016 hPa | 0 mm | - | - | - |
| 1777983468 | 11.67° C | 96% | 1016 hPa | 0 mm | - | - | - |
| 1777982267 | 12.22° C | 96% | 1016 hPa | 0 mm | - | - | - |
| 1777981066 | 11.11° C | 95% | 1016 hPa | 0 mm | - | - | - |
| 1777979865 | 12.22° C | 95% | 1016 hPa | 0 mm | - | - | - |
| 1777978664 | 11.11° C | 94% | 1016 hPa | 0 mm | - | - | - |
| 1777977463 | 11.67° C | 94% | 1016 hPa | 0 mm | - | - | - |
* Rain latest hour (hover to see other rain measurements)
** Current wind speed in m/s (hover to see current wind gust speed)